Location: ??
(35.5052°N, 139.7262°E)
Time: 18:21:39
(UTC+00:00)

Cosmos 1461 - Pass Details

Date: 20 June 2021
Orbit: 513 x 650 km, 65.0° (Epoch: 30 July)

Event Time Altitude Azimuth Distance (km) Brightness Sun altitude
Rises 12:06:40 0° 328° (NNW) 2,768 8.0 -20.4°
Reaches altitude 10° 12:08:57 10° 325° (NW) 1,844 6.7 -20.7°
Maximum altitude 12:13:02 66° 243° (WSW) 593 2.9 -21.2°
Enters shadow 12:13:30 59° 203° (SSW) 623 2.8 -21.3°
